Tracking 22287 objects as of 27-Jan-2021
HD Live streaming from Space Station
objects crossing your sky now

OPS 5805

Track OPS 5805 now!
OPS 5805 is classified as:


NORAD ID: 12093
Int'l Code: 1980-100A
Perigee: 1,601.2 km
Apogee: 38,776.6 km
Inclination: 63.6 °
Period: 718.0 minutes
Semi major axis: 26559 km
RCS: Unknown
Launch date: December 13, 1980
Source: United States (US)
Launch site: AIR FORCE WESTERN TEST RANGE (AFWTR)
aabbcc
Your satellite tracking list
Your tracking list is empty




NASA's NSSDC Master Catalog

Two Line Element Set (TLE):
1 12093U 80100A   21022.94329267 -.00000961  00000-0  00000-0 0  9990
2 12093  63.5948  57.6819 6998397 277.5111  14.4175  2.00568286 12612
Source of the keplerian elements: AFSPC